Погода в Намъянджу

Южная Корея     37°39′21″N   127°14′37″E
темп.,
°C
ветер,
м/с
пор.,
м/с
влажн.,
%
обл.,
%
осадки,
мм/ч
давл.,
гПа
погр.,
м
11 мая, вт
вт1100:00+9всв218787 0.0 101526
03:00+8всв2189100 0.0 101526
06:00+8всв2288100 0.0 101552
09:00+17в245087 0.0 1015495
12:00+23в4626100 0.0 10141506
15:00+25юв4622100 0.0 10112074
18:00+21ююв3640100 0.0 1012377
21:00+14в2359100 0.0 101461
12 мая, ср
ср1200:00+12всв225774 0.0 101543
03:00+10всв2260100 0.0 101552
06:00+10в2258100 0.0 101559
09:00+17всв2335100 0.0 1014367
12:00+20вюв1228100 0.0 1014710
15:00+24ю12295 0.0 10111171
18:00+23ююз11430 0.0 1011451
21:00+17в11570 0.0 101211
13 мая, чт
чт1300:00+15в11670 0.0 101312
03:00+14всв22750 0.0 101222
06:00+13всв227789 0.0 101331
09:00+21вюв015253 0.0 1013465
12:00+26зюз1139100 0.0 10111281
15:00+27з2237100 0.0 10101827
18:00+25ссз345013 0.0 1010730
21:00+19ссз11710 0.0 101112
14 мая, пт
пт1400:00+17ссв11784 0.0 101211
03:00+16всв11875 0.0 101211
06:00+16в118810 0.0 101319
09:00+23юв116121 0.0 1013533
12:00+29ююз114182 0.0 10111534
15:00+29юз22340 0.0 10092039
18:00+27ююз124349 0.0 1009451
21:00+21с2267100 0.0 101121
15 мая, сб
сб1500:00+19юз0171100 0.0 101121
03:00+18в0075100 0.0 101115
06:00+18в1179100 0.0 101022
09:00+23всв1161100 0.0 1009522
12:00+26юв1253100 0.0 1007911
15:00+25ю3255100 0.0 10051002
18:00+22ю1172100 0.0 1004198
21:00+21ююз1181100 0.0 100544